Regional Weather Roundup
Issued by NWS

Home | Current Version | Previous Version | Graphics & Text | Print | Product List | Glossary On
Versions: 1 2 3 4 5 6 7 8 9 10 11 12 13 14 15 16 17 18 19 20 21 22 23 24 25 26 27 28 29
000
ASUS45 KBOU 211407
RWRCO

WEATHER ROUNDUP FOR COLORADO
NATIONAL WEATHER SERVICE DENVER/BOULDER CO
800 AM MDT TUE OCT 21 2014

NOTE: "FAIR" INDICATES FEW OR NO CLOUDS BELOW 12000 FEET WITH NO
SIGNIFICANT WEATHER AND/OR OBSTRUCTIONS TO VISIBILITY.

COZ001>005-013-030-031-211500-
...NORTHWEST COLORADO...

CITY           SKY/WX    TMP DP  RH WIND       PRES   REMARKS
CRAIG          MOCLDY    37  34  89 CALM      30.11S
HAYDEN         NOT AVBL
MEEKER         CLOUDY    43  37  79 CALM      30.11F
MOUNT WERNER   NOT AVBL
STEAMBOAT SPGS CLOUDY    37  35  89 CALM      30.15R
WALDEN         PTCLDY    34  30  86 SE6       30.19R WCI  29
$$

COZ006>008-011-211500-
...WEST CENTRAL VALLEYS...

CITY           SKY/WX    TMP DP  RH WIND       PRES   REMARKS
GRAND JUNCTION MOCLDY    56  37  49 SE13      30.05R
MONTROSE       MOCLDY    49  40  71 S8        30.13S
EAGLE          MOCLDY    43  37  81 W5        30.19R
RIFLE          CLOUDY    45  38  76 CALM      30.10S
DELTA          MOCLDY    55  42  61 E5        30.10S
NUCLA          NOT AVBL
$$

COZ017>023-064>068-211500-
...SOUTHWEST COLORADO...

CITY           SKY/WX    TMP DP  RH WIND       PRES   REMARKS
DURANGO        MOCLDY    47  44  90 CALM      30.20R
CORTEZ         MOCLDY    51  42  71 CALM      30.14R
PAGOSA SPRINGS MOCLDY    42  42  99 CALM      30.25R
TELLURIDE      CLOUDY    45  39  77 NE5       30.28S
WOLF CREEK PAS FOG       32  32 100 SW8       30.40R VSB<1/4 WCI  25
$$

COZ009-010-012-014-032>034-037-058>063-211500-
...CENTRAL COLORADO...

CITY           SKY/WX    TMP DP  RH WIND       PRES   REMARKS
ASPEN          MOCLDY    42  35  76 S5        30.19S
BUENA VISTA    MOCLDY    38  32  78 CALM      30.24S
COPPER MTN     PTCLDY    41  28  60 S7        30.38S
BERTHOUD PASS  FAIR      32  30  93 NW16      30.41S WCI  21
COTTONWOOD PAS CLOUDY    43  32  65 CALM      30.31R
GUNNISON       CLOUDY    36  28  75 CALM      30.26S
KREMMLING      DRIZZLE   34  32  93 CALM        N/A
LEADVILLE      MOCLDY    33  29  85 VRB5      30.29S WCI  29
MONARCH PASS   CLOUDY    34  30  86 W12       30.49R WCI  25
SALIDA         MOCLDY    41  33  72 N7        30.30R
SUNLIGHT       MOCLDY    39  36  87 CALM      30.33S
WILKERSON PASS NOT AVBL
$$

COZ069>075-211500-
...SAN LUIS VALLEY/SANGRE DE CRISTO MOUNTAINS...

CITY           SKY/WX    TMP DP  RH WIND       PRES   REMARKS
ALAMOSA        PTCLDY    32  29  88 SE3       30.24S
LA VETA PASS   FOG       36  36 100 S9G18     30.31S VSB 3/4
SAGUACHE       PTCLDY    34  32  93 NW10      30.27R WCI  26
$$

COZ035-036-038>040-211500-
...NORTHERN COLORADO FRONT RANGE...

CITY           SKY/WX    TMP DP  RH WIND       PRES   REMARKS
DENVER INTL AP PTCLDY    52  37  56 SW9       30.03S
DMNS CITY PARK   N/A     54  37  52 S6G12     30.03S
AURORA         PTCLDY    54  37  52 S10       30.05S
FRONT RANGE AP NOT AVBL
ERIE MUNI ARPT PTCLDY    44  39  83 CALM      30.02S
BOULDER MUN AP PTCLDY    46  37  71 NW3       30.02S
CENTENNIAL     MOCLDY    54  38  54 S9        30.06S
BROOMFIELD     MOCLDY    50  36  57 SW5       30.04S
FORT COLLINS   PTCLDY    45  37  76 NE3       30.03S
LONGMONT       PTCLDY    44  39  80 W3        30.04R
$$

COZ041-046-047-076>085-087-088-211500-
...PIKES PEAK/PALMER DIVIDE AND SOUTHERN FOOTHILLS...

CITY           SKY/WX    TMP DP  RH WIND       PRES   REMARKS
COLO. SPRINGS  PTCLDY    45  38  76 NE7       30.12R
A. F. ACADEMY  PTCLDY    40  36  84 NE2       30.13R
ELLICOTT       PTCLDY    45  41  86 S6        30.10R
FALCON         PTCLDY    46  37  73 CALM      30.15R
FORT CARSON    PTCLDY    44  39  82 NW5       30.09S
LIMON          FOG       39  38  96 CALM      30.09R VSB<1/4
MONUMENT HILL  CLEAR     46  34  61 SW6       30.13R
TRINIDAD       PTCLDY    52  40  63 W10       30.13R
$$

COZ042>045-048>051-090-091-211500-
...NORTHEAST COLORADO...

CITY           SKY/WX    TMP DP  RH WIND       PRES   REMARKS
GREELEY ARPT   PTCLDY    41  32  70 CALM      30.04R
AKRON          CLEAR     51  46  83 S9        30.01S
BURLINGTON     CLEAR     53  51  93 S12       30.06S FOG
WRAY           CLEAR     56  51  85 S12       30.01S
STERLING       CLEAR     46  46 100 W5        29.99S
HOLYOKE        CLEAR     48  45  87 S6        30.02R
FORT MORGAN    CLEAR     47  43  87 SW5       30.01S
$$

COZ086-089-092>099-211500-
...SOUTHEAST COLORADO...

CITY           SKY/WX    TMP DP  RH WIND       PRES   REMARKS
PUEBLO         PTCLDY    45  39  79 CALM      30.08R
LA JUNTA       CLEAR     48  44  86 W5        30.07R
LAMAR          PTCLDY    43  42  97 CALM      30.05R FOG
SPRINGFIELD      N/A     50  47  89 SW7       30.10R
$$



USA.gov is the U.S. government's official web portal to all federal, state and local government web resources and services.